Date String (YYYY-MM-DD hh:mm:ss) UTC,Instrument flags,Ambient pressure (hPa),Sample flow (lpm),Bypass flow (lpm),Sample temperature (°C),Ambient temperature (°C),ASC tube jacket temperature (°C),LED temperature (°C),Box temperature (°C),Sample RH (%),Span deviation,Mass concentration (μg/m³),Mass concentration (μg/m³),Mass concentration (μg/m³)
DateTimeUTC,F1_M11,P_M11,Q1_M11,Q2_M11,T1_M11,T2_M11,T3_M11,T4_M11,T5_M11,U1_M11,ZSPAN_M11,X0_M11,X2_M11,X1_M11
2022-10-25 03:00:00,,0822.0,5.00,0.00,23.8,22.0,00.0,32.8,25.6,07.3,0000.0,0003.51,0002.53,0002.25
2022-10-25 03:01:00,,0822.0,4.98,0.00,23.8,22.0,00.0,32.8,25.5,07.4,0000.0,0003.33,0002.48,0002.22
2022-10-25 03:02:00,,0821.9,5.00,0.00,23.8,22.0,00.0,32.7,25.5,07.4,0000.0,0003.28,0002.45,0002.19
2022-10-25 03:03:00,,0821.9,5.01,0.00,23.8,22.0,00.0,32.7,25.5,07.4,0000.0,0003.27,0002.42,0002.15
2022-10-25 03:04:00,,0821.8,5.00,0.00,23.7,21.9,00.0,32.7,25.5,07.4,0000.0,0003.28,0002.41,0002.12
2022-10-25 03:05:00,,0821.8,5.00,0.00,23.7,21.8,00.0,32.7,25.5,07.5,0000.0,0003.30,0002.40,0002.10
2022-10-25 03:06:00,,0821.8,5.00,0.00,23.7,21.8,00.0,32.7,25.5,07.5,0000.0,0003.62,0002.45,0002.11
2022-10-25 03:07:00,,0821.8,5.00,0.00,23.6,21.8,00.0,32.7,25.4,07.5,0000.0,0003.65,0002.45,0002.12
2022-10-25 03:08:00,,0821.8,5.00,0.00,23.6,21.8,00.0,32.6,25.4,07.6,0000.0,0003.61,0002.44,0002.13
2022-10-25 03:09:00,,0821.8,5.00,0.00,23.6,21.7,00.0,32.6,25.3,07.6,0000.0,0003.61,0002.47,0002.14
2022-10-25 03:10:00,,0821.8,5.00,0.00,23.6,21.6,00.0,32.6,25.3,07.7,0000.0,0003.56,0002.47,0002.13
2022-10-25 03:11:00,,0821.8,5.00,0.00,23.5,21.6,00.0,32.6,25.3,07.7,0000.0,0003.98,0002.49,0002.14
2022-10-25 03:12:00,,0821.7,4.99,0.00,23.5,21.6,00.0,32.5,25.3,07.8,0000.0,0004.25,0002.49,0002.15
2022-10-25 03:13:00,,0821.7,5.00,0.00,23.5,21.6,00.0,32.5,25.2,07.8,0000.0,0004.20,0002.47,0002.14
2022-10-25 03:14:00,,0821.7,5.00,0.00,23.5,21.6,00.0,32.5,25.1,07.8,0000.0,0004.15,0002.45,0002.14
2022-10-25 03:15:00,,0821.6,5.01,0.00,23.4,21.7,00.0,32.5,25.1,07.8,0000.0,0004.17,0002.47,0002.15
2022-10-25 03:16:00,,0821.5,5.00,0.00,23.4,21.8,00.0,32.4,25.2,07.8,0000.0,0004.23,0002.50,0002.15
2022-10-25 03:17:00,,0821.5,4.98,0.00,23.5,21.9,00.0,32.4,25.3,07.9,0000.0,0003.86,0002.44,0002.14
2022-10-25 03:18:00,,0821.5,5.01,0.00,23.5,21.9,00.0,32.4,25.3,07.9,0000.0,0003.85,0002.43,0002.13
2022-10-25 03:19:00,,0821.4,5.01,0.00,23.5,22.0,00.0,32.4,25.3,07.9,0000.0,0004.55,0002.43,0002.14
2022-10-25 03:20:00,,0821.4,4.99,0.00,23.5,22.0,00.0,32.4,25.3,07.8,0000.0,0004.75,0002.38,0002.12
2022-10-25 03:21:00,,0821.5,5.01,0.00,23.5,22.0,00.0,32.4,25.3,07.7,0000.0,0004.84,0002.37,0002.12
2022-10-25 03:22:00,,0821.5,5.01,0.00,23.5,22.1,00.0,32.4,25.4,07.7,0000.0,0004.59,0002.39,0002.13
2022-10-25 03:23:00,,0821.4,4.98,0.00,23.6,22.1,00.0,32.4,25.4,07.7,0000.0,0004.28,0002.41,0002.14
2022-10-25 03:24:00,,0821.4,5.01,0.00,23.6,22.1,00.0,32.4,25.5,07.7,0000.0,0004.39,0002.42,0002.14
2022-10-25 03:25:00,,0821.4,5.01,0.00,23.6,22.1,00.0,32.4,25.4,07.7,0000.0,0004.41,0002.43,0002.14
2022-10-25 03:26:00,,0821.4,5.00,0.00,23.6,22.1,00.0,32.4,25.4,07.6,0000.0,0004.43,0002.45,0002.17
2022-10-25 03:27:00,,0821.4,4.98,0.00,23.6,22.1,00.0,32.4,25.4,07.6,0000.0,0004.51,0002.47,0002.18
2022-10-25 03:28:00,,0821.4,5.00,0.00,23.5,22.0,00.0,32.4,25.3,07.7,0000.0,0004.62,0002.51,0002.20
2022-10-25 03:29:00,,0821.4,5.00,0.00,23.5,22.0,00.0,32.4,25.3,07.6,0000.0,0004.62,0002.53,0002.23
2022-10-25 03:30:00,,0821.4,5.00,0.00,23.5,22.0,00.0,32.4,25.4,07.6,0000.0,0004.42,0002.53,0002.25
2022-10-25 03:31:00,,0821.4,4.98,0.00,23.5,22.0,00.0,32.4,25.4,07.5,0000.0,0004.59,0002.59,0002.28
2022-10-25 03:32:00,,0821.4,5.00,0.00,23.5,22.0,00.0,32.4,25.3,07.6,0000.0,0004.52,0002.60,0002.32
2022-10-25 03:33:00,,0821.4,5.01,0.00,23.5,21.9,00.0,32.4,25.3,07.6,0000.0,0004.41,0002.57,0002.32
2022-10-25 03:34:00,,0821.3,5.00,0.00,23.5,21.9,00.0,32.4,25.2,07.6,0000.0,0004.29,0002.55,0002.33
2022-10-25 03:35:00,,0821.3,5.01,0.00,23.4,21.8,00.0,32.4,25.1,07.7,0000.0,0004.24,0002.58,0002.35
2022-10-25 03:36:00,,0821.4,5.00,0.00,23.4,21.7,00.0,32.3,25.1,07.6,0000.0,0004.33,0002.62,0002.37
2022-10-25 03:37:00,,0821.3,4.98,0.00,23.4,21.8,00.0,32.3,25.1,07.5,0000.0,0004.35,0002.62,0002.37
2022-10-25 03:38:00,,0821.3,5.00,0.00,23.4,21.8,00.0,32.3,25.1,07.6,0000.0,0004.23,0002.60,0002.37
2022-10-25 03:39:00,,0821.3,5.00,0.00,23.4,21.8,00.0,32.3,25.1,07.5,0000.0,0004.13,0002.57,0002.36
2022-10-25 03:40:00,,0821.2,5.01,0.00,23.4,21.8,00.0,32.3,25.1,07.6,0000.0,0004.12,0002.56,0002.35
2022-10-25 03:41:00,,0821.3,4.99,0.00,23.4,21.8,00.0,32.3,25.1,07.6,0000.0,0003.81,0002.58,0002.35
2022-10-25 03:42:00,,0821.3,5.00,0.00,23.4,21.8,00.0,32.3,25.2,07.6,0000.0,0003.36,0002.59,0002.35
2022-10-25 03:43:00,,0821.2,5.01,0.00,23.4,21.8,00.0,32.3,25.1,07.5,0000.0,0003.39,0002.60,0002.33
2022-10-25 03:44:00,,0821.2,5.00,0.00,23.4,21.8,00.0,32.3,25.2,07.4,0000.0,0003.46,0002.61,0002.34
2022-10-25 03:45:00,,0821.2,5.00,0.00,23.4,21.8,00.0,32.3,25.1,07.4,0000.0,0003.56,0002.64,0002.34
2022-10-25 03:46:00,,0821.2,5.00,0.00,23.4,21.7,00.0,32.3,25.1,07.4,0000.0,0003.49,0002.61,0002.33
2022-10-25 03:47:00,,0821.2,5.01,0.00,23.4,21.7,00.0,32.3,25.1,07.4,0000.0,0003.53,0002.60,0002.33
2022-10-25 03:48:00,,0821.2,5.00,0.00,23.4,21.7,00.0,32.3,25.1,07.4,0000.0,0003.64,0002.60,0002.32
2022-10-25 03:49:00,,0821.2,4.98,0.00,23.3,21.7,00.0,32.3,25.1,07.3,0000.0,0003.71,0002.59,0002.31
2022-10-25 03:50:00,,0821.2,5.02,0.00,23.3,21.7,00.0,32.3,25.0,07.2,0000.0,0003.77,0002.61,0002.31
2022-10-25 03:51:00,,0821.3,4.98,0.00,23.4,21.7,00.0,32.3,25.1,07.1,0000.0,0003.76,0002.60,0002.31
2022-10-25 03:52:00,,0821.2,5.02,0.00,23.4,21.7,00.0,32.2,25.1,07.1,0000.0,0003.69,0002.57,0002.29
2022-10-25 03:53:00,,0821.2,4.98,0.00,23.3,21.7,00.0,32.2,25.1,07.1,0000.0,0003.73,0002.54,0002.28
2022-10-25 03:54:00,,0821.2,5.02,0.00,23.3,21.7,00.0,32.2,25.1,07.0,0000.0,0004.04,0002.54,0002.27
2022-10-25 03:55:00,,0821.2,4.99,0.00,23.3,21.7,00.0,32.2,25.1,07.0,0000.0,0004.02,0002.54,0002.26
2022-10-25 03:56:00,,0821.2,5.00,0.00,23.3,21.7,00.0,32.2,25.1,07.1,0000.0,0003.99,0002.53,0002.25
2022-10-25 03:57:00,,0821.2,5.02,0.00,23.3,21.7,00.0,32.2,25.1,07.2,0000.0,0004.19,0002.57,0002.25
2022-10-25 03:58:00,,0821.1,4.99,0.00,23.3,21.7,00.0,32.2,25.1,07.2,0000.0,0004.22,0002.59,0002.24
2022-10-25 03:59:00,,0821.1,5.01,0.00,23.3,21.6,00.0,32.2,25.0,07.2,0000.0,0004.14,0002.58,0002.22
